Weather History for LKPR - October, 2010

Change the Weather History Date:

Monday, October 25, 2010

  Actual Average Record
Temperature  
Mean Temperature 39 °F -  
Max Temperature 43 °F 45 °F 64 °F (2004)
Min Temperature 35 °F 33 °F 24 °F (2003)
Degree Days  
Heating Degree Days 26    
Moisture  
Dew Point 34 °F    
Average Humidity 81    
Maximum Humidity 93    
Minimum Humidity 63    
Precipitation  
Precipitation 0.00 in 0.04 in - ()
Sea Level Pressure  
Sea Level Pressure 30.04 in    
Wind  
Wind Speed 7 mph ()    
Max Wind Speed 12 mph    
Max Gust Speed -    
Visibility 7.3 miles    
Events      
Averages and records for this station are not official NWS values.
T = Trace of Precipitation, MM = Missing Value Source: Averaged Metar Reports

Daily Weather History Graph

Daily Weather History Graph

Search for Another Location

Airport or City:

Trip Planner

Search our weather history database for the weather conditions in past years. The results will help you decide how hot, cold, wet, or windy it might be!

Date:

Astronomy

Oct. 25, 2010 Rise Set
Actual Time 7:40 AM CEST 5:52 PM CEST
Civil Twilight 7:07 AM CEST 6:25 PM CEST
Nautical Twilight 6:29 AM CEST 7:03 PM CEST
Astronomical Twilight 5:52 AM CEST 7:41 PM CEST
Moon 6:43 PM CEST (10/25) 10:28 AM CEST (10/25)
Length of Visible Light 11h 18m
Length of Day
10h 11m
Waning Gibbous, 95% of the Moon is Illuminated
Oct 25
Waning Gibbous
Oct 30
Last Quarter
Nov 6
New
Nov 13
First Quarter
Nov 21
Full

Hourly Weather History & Observations

Time (CEST) Temp. Windchill Dew Point Humidity Pressure Visibility Wind Dir Wind Speed Gust Speed Precip Events Conditions
12:00 AM 41.0 °F 35.2 °F 37.4 °F 87% 29.89 in - SW 9.2 mph - N/A   Clear
12:30 AM 39.2 °F 33.6 °F 35.6 °F 87% 29.89 in - WSW 8.1 mph - N/A   Clear
1:00 AM 37.4 °F 32.1 °F 35.6 °F 93% 29.89 in - WSW 6.9 mph - N/A   Clear
1:30 AM 37.4 °F 32.1 °F 35.6 °F 93% 29.89 in - SW 6.9 mph - N/A   Clear
2:00 AM 38 °F - 35 °F 84% 29.96 in 31 mi West 6.7 mph - -   Mostly Cloudy
2:00 AM 37.4 °F 32.8 °F 35.6 °F 93% 29.89 in - WSW 5.8 mph - N/A   Clear
2:30 AM 37.4 °F 33.8 °F 35.6 °F 93% 29.92 in - WSW 4.6 mph - N/A   Clear
3:00 AM 37.4 °F 32.8 °F 35.6 °F 93% 29.89 in - West 5.8 mph - N/A   Clear
3:30 AM 37.4 °F 32.8 °F 35.6 °F 93% 29.92 in - West 5.8 mph - N/A   Clear
4:00 AM 37.4 °F 32.1 °F 35.6 °F 93% 29.92 in - West 6.9 mph - N/A   Clear
4:30 AM 37.4 °F 33.8 °F 35.6 °F 93% 29.92 in - West 4.6 mph - N/A   Clear
5:00 AM 37.4 °F 32.8 °F 35.6 °F 93% 29.92 in - West 5.8 mph - N/A   Clear
5:30 AM 37.4 °F 32.8 °F 33.8 °F 87% 29.95 in - West 5.8 mph - N/A   Clear
6:00 AM 39.2 °F 35.9 °F 33.8 °F 81% 29.95 in - WNW 4.6 mph - N/A   Clear
6:30 AM 37.4 °F 32.8 °F 33.8 °F 87% 29.95 in - WNW 5.8 mph - N/A   Clear
7:00 AM 37.4 °F 33.8 °F 33.8 °F 87% 29.95 in - WNW 4.6 mph - N/A   Clear
7:30 AM 37.4 °F 31.4 °F 33.8 °F 87% 29.98 in - NW 8.1 mph - N/A   Clear
8:00 AM 37 °F - 34 °F 84% 30.04 in 22 mi NNW 4.5 mph - -   Mostly Cloudy
8:00 AM 37.4 °F 32.8 °F 33.8 °F 87% 29.98 in - WNW 5.8 mph - N/A   Clear
8:30 AM 37.4 °F 32.8 °F 33.8 °F 87% 30.01 in - WNW 5.8 mph - N/A   Clear
9:00 AM 39.2 °F 34.2 °F 35.6 °F 87% 30.01 in - WNW 6.9 mph - N/A   Clear
9:30 AM 39.2 °F 33.6 °F 35.6 °F 87% 30.01 in - NW 8.1 mph - N/A   Clear
10:00 AM 41.0 °F 35.2 °F 35.6 °F 81% 30.01 in - NW 9.2 mph - N/A   Clear
10:30 AM 41.0 °F 35.2 °F 35.6 °F 81% 30.04 in - NW 9.2 mph - N/A   Clear
11:00 AM 41.0 °F 35.8 °F 35.6 °F 81% 30.04 in - NW 8.1 mph - N/A   Clear
11:30 AM 41.0 °F 35.2 °F 35.6 °F 81% 30.04 in 6.2 mi NW 9.2 mph - N/A   Partly Cloudy
12:00 PM 41.0 °F 34.7 °F 35.6 °F 81% 30.06 in 6.2 mi NW 10.4 mph - N/A   Mostly Cloudy
12:30 PM 42.8 °F 37.5 °F 35.6 °F 76% 30.06 in 6.2 mi NW 9.2 mph - N/A   Scattered Clouds
1:00 PM 42.8 °F 37.0 °F 35.6 °F 76% 30.06 in 6.2 mi NW 10.4 mph - N/A   Scattered Clouds
1:30 PM 42.8 °F 37.5 °F 35.6 °F 76% 30.06 in 6.2 mi NW 9.2 mph - N/A   Mostly Cloudy
2:00 PM 43 °F - 35 °F 63% 30.12 in 16 mi NNW 11.2 mph - -   Overcast
2:00 PM 42.8 °F 36.6 °F 33.8 °F 70% 30.06 in 6.2 mi NNW 11.5 mph - N/A   Mostly Cloudy
2:30 PM 42.8 °F 37.5 °F 35.6 °F 76% 30.06 in 6.2 mi NW 9.2 mph - N/A   Mostly Cloudy
3:00 PM 42.8 °F 37.5 °F 33.8 °F 70% 30.09 in 6.2 mi NW 9.2 mph - N/A   Mostly Cloudy
3:30 PM 42.8 °F 37.0 °F 32.0 °F 66% 30.09 in 6.2 mi NW 10.4 mph - N/A   Scattered Clouds
4:00 PM 42.8 °F 38.0 °F 33.8 °F 70% 30.09 in 6.2 mi NW 8.1 mph - N/A   Scattered Clouds
4:30 PM 42.8 °F 37.0 °F 32.0 °F 66% 30.09 in 6.2 mi NW 10.4 mph - N/A   Scattered Clouds
5:00 PM 42.8 °F 37.5 °F 32.0 °F 66% 30.09 in 6.2 mi NW 9.2 mph - N/A   Partly Cloudy
5:30 PM 41.0 °F 35.8 °F 32.0 °F 70% 30.12 in 6.2 mi WNW 8.1 mph - N/A   Partly Cloudy
6:00 PM 41.0 °F 37.1 °F 32.0 °F 70% 30.12 in 6.2 mi WNW 5.8 mph - N/A   Partly Cloudy
6:30 PM 41.0 °F 37.1 °F 32.0 °F 70% 30.12 in 6.2 mi WNW 5.8 mph - N/A   Scattered Clouds
7:00 PM 41.0 °F 37.1 °F 32.0 °F 70% 30.12 in 6.2 mi WNW 5.8 mph - N/A   Partly Cloudy
7:30 PM 39.2 °F 35.9 °F 32.0 °F 75% 30.15 in 6.2 mi WNW 4.6 mph - N/A   Partly Cloudy
8:00 PM 39 °F - 32 °F 68% 30.21 in 19 mi NNW 6.7 mph - -   Partly Cloudy
8:00 PM 39.2 °F 34.2 °F 32.0 °F 75% 30.15 in 6.2 mi NW 6.9 mph - N/A   Scattered Clouds
8:30 PM 39.2 °F 34.2 °F 32.0 °F 75% 30.15 in 6.2 mi NW 6.9 mph - N/A   Partly Cloudy
9:00 PM 37.4 °F 32.8 °F 30.2 °F 75% 30.18 in - WNW 5.8 mph - N/A   Clear
9:30 PM 37.4 °F 32.8 °F 32.0 °F 81% 30.18 in - WNW 5.8 mph - N/A   Clear
10:00 PM 35.6 °F 30.7 °F 30.2 °F 81% 30.18 in - West 5.8 mph - N/A   Clear
10:30 PM 35.6 °F 29.2 °F 30.2 °F 81% 30.18 in - West 8.1 mph - N/A   Clear
11:00 PM 35.6 °F 30.7 °F 32.0 °F 87% 30.18 in - West 5.8 mph - N/A   Clear
11:30 PM 35.6 °F 29.9 °F 32.0 °F 87% 30.21 in - WSW 6.9 mph - N/A   Clear